COSMOS 2251 DEB, 37089

Orbit data source: Space-Track

COSMOS 2251 DEB, 37089 is space debris in LEO originally from a launch on Wed, 16 Jun 1993 UTC launched from the Plesetsk Missile And Space Complex (PKMTR). The debris from Iridium 33, an American commercial communications satellite, has been tracked extensively since its accidental collision with the defunct Russian satellite Cosmos 2251 in 2009. This event, occurring at high speed in low Earth orbit (LEO), generated thousands of pieces of space debris, significantly increasing the risk of further collisions. The Iridium 33 debris cloud has impacted space traffic management and orbital debris mitigation strategies, making it a subject of ongoing study in space situational awareness.

Loading next visibility...
Identifier
37089, 1993-036BFK
Orbit
LEO
Country
Flag of CISCIS
Related business
Manufacturer
Unknown
Mission
Spacecraft
Bus & Motor
Unknown
Mass
Unknown
Launch date (UTC)
1993-06-16 (33 years ago)
Launch vehicle
Unknown
Launch site
Plesetsk Missile And Space Complex (PKMTR)
Object type
Payload
Rocket body
Debris
Shape & HBR
Unknown shape, 0.1 m
Radar Cross Section
Small (<0.1 m²)

Expand to show TLE details & history
Last TLE update: 21 hours ago

TLE from 21 hours ago
0 COSMOS 2251 DEB
1 37089U 93036BFK 26222.22131878  .00004826  00000-0  96208-3 0  9992
2 37089  74.0346  50.1134 0129968  89.7744 271.8312 14.56988191696086
Epoch: 2026-08-10T05:18Z
TLE epoch observation values (Epoch: 2026-08-10T05:18:41.942Z)
Latitude
-0.00004°
Longitude
11.73156°
Altitude
703.807 km
Speed
7.505 km/s
True Right ascension
03h 20m 27s
True Declination
0° 00' 00"
Sunlit
Object was in daylight at epoch
Visualization orbit readout
Latitude
Unknown
Longitude
Unknown
Altitude
Unknown
Speed
Unknown
Apparent Right ascension
Unknown
Apparent Declination
Unknown
Sunlit
N/A
Visualization observer readout
Local Sidereal Time
16:27:25
Azimuth
Unknown
Elevation
Unknown
Doppler factor
Unknown
Orbital elements
Apogee altitude
792.516 km
Perigee altitude
608.516 km
Semi-major axis
7,078.653 km
Eccentricity
0.013
Inclination
74.0346°
RAAN
50.1134°
Arg. of periapsis
89.7744°
True anomaly
270.34203°
Mean anomaly
271.8312°
Eccentric anomaly
271.08667°
Mean motion
3.64433 °/min
Orbital period
98.78 mins
BSTAR
0.00096208

Documentation

Showing up to 5 results
|